| time (UTC) | temp F | wind direction | speed knots | gust knots | rain 1hr in | rain 24hr in | rain mn in | humidity % | barometer mb |
| 20260509185642 | 58 | 224 | 0.0 | 2.6 | 0.00 | 0.23 | 0.23 | 82 | 1011.2 |
| 20260509185137 | 59 | 221 | 0.9 | 1.7 | 0.00 | 0.23 | 0.23 | 84 | 1011.3 |
| 20260509184635 | 57 | 228 | 0.0 | 0.0 | 0.00 | 0.23 | 0.23 | 86 | 1011.2 |
| 20260509184131 | 57 | 228 | 0.0 | 1.7 | 0.00 | 0.23 | 0.23 | 88 | 1011.3 |
| 20260509183628 | 56 | 274 | 0.9 | 2.6 | 0.00 | 0.23 | 0.23 | 87 | 1011.2 |
| 20260509183118 | 56 | 246 | 1.7 | 5.2 | 0.00 | 0.23 | 0.23 | 88 | 1011.2 |
| 20260509182614 | 56 | 194 | 0.0 | 1.7 | 0.00 | 0.23 | 0.23 | 88 | 1011.1 |
| 20260509182111 | 55 | 201 | 0.0 | 0.0 | 0.00 | 0.23 | 0.23 | 89 | 1011.3 |
| 20260509181609 | 55 | 203 | 0.0 | 0.9 | 0.00 | 0.23 | 0.23 | 89 | 1011.2 |
| 20260509181106 | 55 | 217 | 0.0 | 0.0 | 0.00 | 0.23 | 0.23 | 89 | 1011.1 |
| 20260509180603 | 55 | 217 | 0.0 | 0.0 | 0.00 | 0.23 | 0.23 | 89 | 1011.2 |
| 20260509180059 | 55 | 202 | 0.0 | 0.0 | 0.00 | 0.23 | 0.23 | 91 | 1011.1 |
| 20260509175554 | 54 | 230 | 0.0 | 1.7 | 0.00 | 0.23 | 0.23 | 91 | 1011.1 |
| 20260509175052 | 54 | 220 | 1.7 | 1.7 | 0.00 | 0.23 | 0.23 | 92 | 1011.2 |
| 20260509174548 | 53 | 223 | 0.0 | 0.9 | 0.00 | 0.23 | 0.23 | 93 | 1011.1 |
| 20260509174043 | 54 | 222 | 0.0 | 2.6 | 0.00 | 0.23 | 0.23 | 92 | 1011.3 |
| 20260509173538 | 54 | 227 | 0.0 | 0.9 | 0.00 | 0.23 | 0.23 | 92 | 1011.0 |
| 20260509173034 | 54 | 202 | 1.7 | 2.6 | 0.00 | 0.23 | 0.23 | 94 | 1010.9 |
| 20260509172531 | 53 | 159 | 1.7 | 5.2 | 0.00 | 0.23 | 0.23 | 94 | 1011.0 |
| 20260509172027 | 53 | 177 | 2.6 | 5.2 | 0.00 | 0.23 | 0.23 | 94 | 1011.0 |
| 20260509171523 | 53 | 230 | 1.7 | 2.6 | 0.00 | 0.23 | 0.23 | 95 | 1011.0 |
| 20260509171020 | 53 | 189 | 0.9 | 2.6 | 0.07 | 0.23 | 0.23 | 95 | 1011.0 |
| 20260509170515 | 53 | 204 | 0.0 | 1.7 | 0.07 | 0.23 | 0.23 | 95 | 1010.9 |
| 20260509170012 | 53 | 227 | 0.0 | 0.9 | 0.00 | 0.22 | 0.22 | 95 | 1011.0 |
| 20260509165510 | 53 | 229 | 0.9 | 2.6 | 0.00 | 0.22 | 0.22 | 95 | 1011.0 |
| 20260509165006 | 53 | 206 | 1.7 | 3.5 | 0.00 | 0.22 | 0.22 | 95 | 1010.9 |
| 20260509164502 | 53 | 217 | 1.7 | 6.1 | 0.05 | 0.22 | 0.22 | 95 | 1011.0 |
| 20260509163958 | 53 | 143 | 3.5 | 5.2 | 0.05 | 0.22 | 0.22 | 95 | 1011.0 |
| 20260509163456 | 53 | 248 | 1.7 | 1.7 | 0.00 | 0.21 | 0.21 | 96 | 1011.1 |
| 20260509162954 | 52 | 234 | 0.9 | 3.5 | 0.00 | 0.21 | 0.21 | 96 | 1011.2 |
| 20260509162454 | 52 | 230 | 0.0 | 1.7 | 0.00 | 0.21 | 0.21 | 96 | 1011.2 |
| 20260509161949 | 52 | 204 | 1.7 | 2.6 | 0.07 | 0.21 | 0.21 | 96 | 1011.4 |
| 20260509161446 | 52 | 206 | 0.9 | 2.6 | 0.07 | 0.21 | 0.21 | 96 | 1011.3 |
| 20260509160941 | 52 | 231 | 0.9 | 2.6 | 0.00 | 0.20 | 0.20 | 96 | 1011.3 |
| 20260509160437 | 52 | 205 | 0.0 | 3.5 | 0.00 | 0.20 | 0.20 | 96 | 1011.3 |
| 20260509155932 | 52 | 225 | 0.0 | 1.7 | 0.05 | 0.20 | 0.20 | 97 | 1011.3 |
| 20260509155429 | 52 | 223 | 0.0 | 0.0 | 0.00 | 0.19 | 0.19 | 97 | 1011.3 |
| 20260509154926 | 52 | 229 | 0.0 | 1.7 | 0.07 | 0.19 | 0.19 | 97 | 1011.4 |
| 20260509154422 | 52 | 231 | 0.0 | 1.7 | 0.05 | 0.18 | 0.18 | 96 | 1011.4 |
| 20260509153919 | 52 | 214 | 0.9 | 1.7 | 0.05 | 0.18 | 0.18 | 96 | 1011.4 |
| 20260509153416 | 52 | 203 | 0.9 | 1.7 | 0.00 | 0.17 | 0.17 | 96 | 1011.3 |
| 20260509152913 | 52 | 205 | 0.9 | 0.9 | 0.07 | 0.17 | 0.17 | 96 | 1011.5 |
| 20260509152409 | 52 | 205 | 0.0 | 0.0 | 0.00 | 0.16 | 0.16 | 96 | 1011.3 |
| 20260509151906 | 52 | 205 | 0.0 | 0.9 | 0.07 | 0.16 | 0.16 | 96 | 1011.3 |
| 20260509151402 | 52 | 204 | 0.9 | 1.7 | 0.07 | 0.16 | 0.16 | 96 | 1011.6 |
| 20260509150901 | 52 | 203 | 0.9 | 2.6 | 0.00 | 0.15 | 0.15 | 95 | 1011.3 |
| 20260509150358 | 52 | 204 | 0.9 | 1.7 | 0.00 | 0.15 | 0.15 | 95 | 1011.3 |
| 20260509145856 | 52 | 240 | 1.7 | 2.6 | 0.00 | 0.15 | 0.15 | 95 | 1011.2 |
| 20260509145355 | 52 | 217 | 0.0 | 1.7 | 0.00 | 0.15 | 0.15 | 95 | 1011.4 |
| 20260509144852 | 52 | 237 | 0.0 | 0.9 | 0.05 | 0.15 | 0.15 | 95 | 1011.4 |
| 20260509144349 | 52 | 230 | 0.0 | 2.6 | 0.05 | 0.15 | 0.15 | 95 | 1011.4 |
| 20260509143846 | 51 | 193 | 1.7 | 2.6 | 0.00 | 0.14 | 0.14 | 95 | 1011.6 |
| 20260509143344 | 51 | 243 | 0.0 | 0.9 | 0.00 | 0.14 | 0.14 | 96 | 1011.5 |
| 20260509142840 | 51 | 228 | 0.9 | 2.6 | 0.00 | 0.14 | 0.14 | 96 | 1011.5 |
| 20260509142336 | 51 | 218 | 0.0 | 2.6 | 0.07 | 0.14 | 0.14 | 97 | 1011.5 |
| 20260509141832 | 51 | 202 | 0.0 | 0.0 | 0.07 | 0.14 | 0.14 | 97 | 1011.7 |
| 20260509141329 | 51 | 230 | 0.0 | 0.9 | 0.00 | 0.13 | 0.13 | 97 | 1011.6 |
| 20260509140825 | 51 | 231 | 0.0 | 0.0 | 0.05 | 0.13 | 0.13 | 97 | 1011.6 |
| 20260509140323 | 51 | 198 | 0.0 | 0.0 | 0.05 | 0.13 | 0.13 | 97 | 1011.6 |
| 20260509135821 | 51 | 214 | 0.9 | 1.7 | 0.07 | 0.12 | 0.12 | 97 | 1011.7 |
| 20260509135318 | 51 | 237 | 0.0 | 1.7 | 0.07 | 0.12 | 0.12 | 97 | 1011.6 |
| 20260509134815 | 51 | 204 | 0.0 | 0.0 | 0.05 | 0.11 | 0.11 | 96 | 1011.7 |
| 20260509134312 | 51 | 236 | 0.9 | 2.6 | 0.07 | 0.10 | 0.10 | 96 | 1011.8 |
| 20260509133809 | 51 | 203 | 0.9 | 2.6 | 0.07 | 0.10 | 0.10 | 96 | 1011.8 |
| 20260509133305 | 51 | 198 | 0.9 | 1.7 | 0.05 | 0.09 | 0.09 | 95 | 1011.7 |
| 20260509132804 | 51 | 227 | 0.0 | 2.6 | 0.05 | 0.09 | 0.09 | 95 | 1011.6 |
| 20260509132306 | 51 | 202 | 0.0 | 0.9 | 0.00 | 0.08 | 0.08 | 96 | 1011.6 |
| 20260509131759 | 51 | 247 | 0.9 | 1.7 | 0.00 | 0.08 | 0.08 | 96 | 1011.7 |
| 20260509131255 | 51 | 195 | 0.0 | 0.9 | 0.00 | 0.08 | 0.08 | 96 | 1011.7 |
| 20260509130752 | 51 | 188 | 0.0 | 0.9 | 0.07 | 0.08 | 0.08 | 96 | 1011.8 |
| 20260509130248 | 50 | 200 | 0.0 | 0.0 | 0.07 | 0.08 | 0.08 | 96 | 1011.8 |
| 20260509125744 | 50 | 200 | 0.0 | 0.9 | 0.05 | 0.07 | 0.07 | 96 | 1012.0 |
| 20260509125242 | 50 | 200 | 0.0 | 1.7 | 0.05 | 0.07 | 0.07 | 96 | 1012.0 |
| 20260509124738 | 50 | 203 | 0.0 | 0.0 | 0.00 | 0.06 | 0.06 | 96 | 1011.9 |
| 20260509124234 | 50 | 198 | 0.0 | 0.9 | 0.07 | 0.06 | 0.06 | 96 | 1012.0 |
| 20260509123733 | 50 | 198 | 0.9 | 1.7 | 0.07 | 0.06 | 0.06 | 96 | 1012.1 |
| 20260509123230 | 50 | 199 | 0.0 | 1.7 | 0.05 | 0.05 | 0.05 | 96 | 1011.9 |
| 20260509122725 | 50 | 201 | 0.9 | 0.9 | 0.05 | 0.05 | 0.05 | 95 | 1011.9 |
| 20260509122222 | 50 | 231 | 0.9 | 1.7 | 0.00 | 0.04 | 0.04 | 95 | 1011.9 |
| 20260509121719 | 50 | 192 | 0.0 | 0.9 | 0.00 | 0.04 | 0.04 | 95 | 1012.0 |
| 20260509121216 | 50 | 217 | 0.9 | 1.7 | 0.00 | 0.04 | 0.04 | 95 | 1011.9 |
| 20260509120715 | 50 | 214 | 0.0 | 0.0 | 0.00 | 0.04 | 0.04 | 95 | 1012.0 |
| 20260509120212 | 50 | 227 | 0.0 | 0.0 | 0.00 | 0.04 | 0.04 | 95 | 1011.8 |
| 20260509115710 | 50 | 229 | 0.0 | 0.0 | 0.07 | 0.04 | 0.04 | 95 | 1012.0 |
| 20260509115207 | 50 | 221 | 0.0 | 0.0 | 0.07 | 0.04 | 0.04 | 95 | 1011.9 |
| 20260509114705 | 49 | 221 | 0.0 | 0.0 | 0.00 | 0.03 | 0.03 | 95 | 1011.9 |
| 20260509114204 | 49 | 175 | 0.9 | 2.6 | 0.00 | 0.03 | 0.03 | 94 | 1012.0 |
| 20260509113702 | 49 | 199 | 0.0 | 0.0 | 0.00 | 0.03 | 0.03 | 94 | 1011.9 |
| 20260509113158 | 49 | 199 | 0.0 | 0.0 | 0.07 | 0.03 | 0.03 | 93 | 1011.9 |
| 20260509112655 | 49 | 227 | 0.0 | 0.0 | 0.07 | 0.03 | 0.03 | 93 | 1012.0 |
| 20260509112152 | 49 | 216 | 0.0 | 0.0 | 0.00 | 0.02 | 0.02 | 93 | 1012.3 |
| 20260509111649 | 49 | 199 | 0.9 | 1.7 | 0.00 | 0.02 | 0.02 | 92 | 1012.1 |
| 20260509111146 | 49 | 228 | 0.0 | 0.0 | 0.00 | 0.02 | 0.02 | 92 | 1011.9 |
| 20260509110643 | 49 | 229 | 0.0 | 0.9 | 0.00 | 0.02 | 0.02 | 92 | 1011.9 |
| 20260509110140 | 49 | 228 | 0.0 | 1.7 | 0.00 | 0.02 | 0.02 | 92 | 1011.8 |
| 20260509105638 | 49 | 238 | 0.0 | 0.0 | 0.00 | 0.02 | 0.02 | 92 | 1012.0 |
| 20260509105135 | 49 | 223 | 0.0 | 0.0 | 0.00 | 0.02 | 0.02 | 92 | 1011.9 |
| 20260509104632 | 49 | 231 | 0.0 | 0.9 | 0.00 | 0.02 | 0.02 | 92 | 1011.7 |
| 20260509104129 | 49 | 227 | 0.0 | 1.7 | 0.00 | 0.02 | 0.02 | 92 | 1011.9 |
| 20260509103627 | 49 | 190 | 0.0 | 0.9 | 0.00 | 0.02 | 0.02 | 93 | 1012.0 |
| 20260509103125 | 49 | 256 | 0.9 | 0.9 | 0.00 | 0.02 | 0.02 | 93 | 1012.1 |
| 20260509102622 | 49 | 224 | 0.0 | 0.9 | 0.00 | 0.02 | 0.02 | 92 | 1012.0 |
| 20260509102119 | 49 | 190 | 1.7 | 1.7 | 0.00 | 0.02 | 0.02 | 92 | 1012.0 |
| 20260509101615 | 49 | 243 | 0.0 | 0.0 | 0.00 | 0.02 | 0.02 | 92 | 1012.1 |
| 20260509101112 | 49 | 203 | 0.0 | 0.0 | 0.00 | 0.02 | 0.02 | 91 | 1012.0 |
| 20260509100609 | 50 | 203 | 0.0 | 1.7 | 0.05 | 0.02 | 0.02 | 90 | 1012.3 |
| 20260509100107 | 49 | 219 | 0.0 | 2.6 | 0.05 | 0.02 | 0.02 | 90 | 1012.3 |
| 20260509095602 | 49 | 230 | 0.0 | 0.9 | 0.00 | 0.01 | 0.01 | 90 | 1012.4 |
| 20260509095100 | 50 | 211 | 0.0 | 0.0 | 0.00 | 0.01 | 0.01 | 90 | 1012.0 |
| 20260509094556 | 50 | 254 | 0.9 | 2.6 | 0.00 | 0.01 | 0.01 | 90 | 1012.4 |
| 20260509094054 | 50 | 241 | 0.9 | 1.7 | 0.07 | 0.01 | 0.01 | 89 | 1012.5 |
| 20260509093552 | 50 | 249 | 0.0 | 5.2 | 0.07 | 0.01 | 0.01 | 87 | 1012.0 |
| 20260509093049 | 49 | 214 | 1.7 | 5.2 | 0.00 | 0.00 | 0.00 | 89 | 1012.5 |
| 20260509092547 | 49 | 236 | 0.0 | 0.0 | 0.00 | 0.00 | 0.00 | 90 | 1012.4 |
| 20260509092046 | 48 | 221 | 0.0 | 0.0 | 0.00 | 0.00 | 0.00 | 93 | 1012.4 |
| 20260509091543 | 47 | 255 | 0.0 | 0.0 | 0.00 | 0.00 | 0.00 | 96 | 1012.3 |
| 20260509091039 | 46 | 246 | 0.0 | 0.9 | 0.00 | 0.00 | 0.00 | 96 | 1012.0 |
| 20260509090536 | 46 | 254 | 0.0 | 0.9 | 0.00 | 0.00 | 0.00 | 96 | 1012.1 |
| 20260509090034 | 46 | 237 | 0.0 | 0.0 | 0.00 | 0.00 | 0.00 | 96 | 1011.9 |
| 20260509085531 | 46 | 237 | 0.0 | 0.9 | 0.00 | 0.00 | 0.00 | 96 | 1012.0 |
| 20260509085027 | 46 | 231 | 1.7 | 1.7 | 0.00 | 0.00 | 0.00 | 97 | 1012.0 |
| 20260509084524 | 46 | 276 | 0.0 | 0.0 | 0.00 | 0.00 | 0.00 | 97 | 1011.9 |
| 20260509084021 | 46 | 276 | 0.0 | 0.0 | 0.00 | 0.00 | 0.00 | 97 | 1011.8 |
| 20260509083519 | 46 | 276 | 0.0 | 0.9 | 0.00 | 0.00 | 0.00 | 97 | 1011.4 |
| 20260509083015 | 46 | 276 | 0.0 | 1.7 | 0.00 | 0.00 | 0.00 | 97 | 1011.7 |
| 20260509082513 | 45 | 276 | 0.0 | 0.0 | 0.00 | 0.00 | 0.00 | 97 | 1011.4 |
| 20260509082010 | 45 | 276 | 0.0 | 0.0 | 0.00 | 0.00 | 0.00 | 97 | 1011.6 |
| 20260509081507 | 45 | 276 | 0.0 | 0.0 | 0.00 | 0.00 | 0.00 | 97 | 1011.5 |
| 20260509081004 | 46 | 276 | 0.0 | 0.0 | 0.00 | 0.00 | 0.00 | 97 | 1011.4 |
| 20260509080502 | 45 | 276 | 0.0 | 0.0 | 0.00 | 0.00 | 0.00 | 97 | 1011.4 |
| 20260509075959 | 46 | 276 | 0.0 | 0.0 | 0.00 | 0.00 | 0.00 | 96 | 1011.4 |
| 20260509075456 | 46 | 276 | 0.0 | 0.0 | 0.00 | 0.00 | 0.00 | 96 | 1011.2 |
| 20260509074954 | 46 | 276 | 0.0 | 0.0 | 0.00 | 0.00 | 0.00 | 96 | 1011.3 |
| 20260509074451 | 46 | 276 | 0.0 | 0.0 | 0.00 | 0.00 | 0.00 | 96 | 1011.5 |
| 20260509073948 | 46 | 276 | 0.0 | 0.0 | 0.00 | 0.00 | 0.00 | 96 | 1011.4 |
| 20260509073444 | 46 | 276 | 0.0 | 0.0 | 0.00 | 0.00 | 0.00 | 96 | 1011.1 |
| 20260509072940 | 45 | 276 | 0.0 | 0.0 | 0.00 | 0.00 | 0.00 | 96 | 1011.1 |
| 20260509072438 | 45 | 276 | 0.0 | 0.0 | 0.00 | 0.00 | 0.00 | 97 | 1011.2 |
| 20260509071934 | 45 | 276 | 0.0 | 0.0 | 0.00 | 0.00 | 0.00 | 97 | 1011.4 |
| 20260509071431 | 45 | 276 | 0.0 | 0.0 | 0.00 | 0.00 | 0.00 | 97 | 1011.3 |
| 20260509070929 | 45 | 276 | 0.0 | 0.0 | 0.00 | 0.00 | 0.00 | 97 | 1011.3 |
| 20260509070425 | 45 | 276 | 0.0 | 0.0 | 0.00 | 0.00 | 0.00 | 96 | 1011.3 |
| 20260509065915 | 44 | 276 | 0.0 | 0.0 | 0.00 | 0.00 | 0.00 | 96 | 1011.2 |
| 20260509065412 | 45 | 276 | 0.0 | 0.0 | 0.00 | 0.00 | 0.00 | 96 | 1011.4 |
| 20260509064908 | 45 | 276 | 0.0 | 0.0 | 0.00 | 0.00 | 0.00 | 95 | 1011.4 |
| 20260509064406 | 45 | 276 | 0.0 | 0.0 | 0.00 | 0.00 | 0.00 | 95 | 1011.5 |
| 20260509063903 | 45 | 277 | 0.0 | 0.0 | 0.00 | 0.00 | 0.00 | 95 | 1011.8 |
| 20260509063359 | 46 | 276 | 0.0 | 0.0 | 0.00 | 0.00 | 0.00 | 95 | 1011.8 |
| 20260509062856 | 46 | 277 | 0.9 | 1.7 | 0.00 | 0.00 | 0.00 | 95 | 1011.8 |
| 20260509062353 | 46 | 221 | 0.0 | 0.0 | 0.00 | 0.00 | 0.00 | 95 | 1012.1 |
| 20260509061850 | 46 | 220 | 0.0 | 0.0 | 0.00 | 0.00 | 0.00 | 95 | 1011.9 |
| 20260509061349 | 46 | 248 | 0.0 | 0.0 | 0.00 | 0.00 | 0.00 | 95 | 1012.1 |
| 20260509060845 | 46 | 228 | 0.0 | 0.0 | 0.00 | 0.00 | 0.00 | 95 | 1012.0 |
| 20260509060342 | 46 | 354 | 1.7 | 1.7 | 0.00 | 0.00 | 0.00 | 95 | 1012.1 |
| 20260509055837 | 46 | 265 | 0.0 | 0.0 | 0.00 | 0.00 | 0.00 | 95 | 1012.6 |
| 20260509055333 | 46 | 265 | 0.0 | 0.0 | 0.00 | 0.00 | 0.00 | 95 | 1012.7 |
| 20260509054831 | 46 | 265 | 0.0 | 0.0 | 0.00 | 0.00 | 0.00 | 95 | 1012.7 |
| 20260509054327 | 46 | 265 | 0.0 | 0.0 | 0.00 | 0.00 | 0.00 | 95 | 1012.7 |
| 20260509053826 | 46 | 265 | 0.0 | 0.0 | 0.00 | 0.00 | 0.00 | 95 | 1012.6 |
| 20260509053322 | 46 | 265 | 0.0 | 0.0 | 0.00 | 0.00 | 0.00 | 95 | 1012.8 |
| 20260509052821 | 46 | 265 | 0.0 | 0.0 | 0.00 | 0.00 | 0.00 | 95 | 1012.9 |
| 20260509052318 | 47 | 265 | 0.0 | 0.0 | 0.00 | 0.00 | 0.00 | 95 | 1012.8 |
| 20260509051815 | 46 | 265 | 0.0 | 0.0 | 0.00 | 0.00 | 0.00 | 95 | 1013.1 |
| 20260509051314 | 46 | 265 | 0.0 | 0.0 | 0.00 | 0.00 | 0.00 | 95 | 1013.1 |
| 20260509050810 | 46 | 265 | 0.0 | 0.0 | 0.00 | 0.00 | 0.00 | 95 | 1013.1 |
| 20260509050306 | 46 | 265 | 0.0 | 0.0 | 0.00 | 0.00 | 0.00 | 95 | 1013.1 |
| 20260509045803 | 46 | 265 | 0.0 | 0.0 | 0.00 | 0.00 | 0.00 | 95 | 1013.1 |
| 20260509045300 | 46 | 265 | 0.0 | 0.0 | 0.00 | 0.00 | 0.00 | 95 | 1013.2 |
| 20260509044758 | 46 | 265 | 0.0 | 0.0 | 0.00 | 0.00 | 0.00 | 95 | 1013.1 |
| 20260509044255 | 46 | 265 | 0.0 | 0.0 | 0.00 | 0.00 | 0.00 | 94 | 1013.2 |
| 20260509043751 | 47 | 265 | 0.0 | 0.0 | 0.00 | 0.00 | 0.00 | 94 | 1013.1 |
| 20260509043247 | 47 | 265 | 0.0 | 0.0 | 0.00 | 0.00 | 0.00 | 94 | 1013.4 |
| 20260509042743 | 47 | 265 | 0.0 | 0.0 | 0.00 | 0.00 | 0.00 | 94 | 1013.1 |
| 20260509042240 | 47 | 265 | 0.0 | 0.0 | 0.00 | 0.00 | 0.00 | 94 | 1013.3 |
| 20260509041737 | 47 | 265 | 0.0 | 0.0 | 0.00 | 0.00 | 0.00 | 94 | 1013.3 |
| 20260509041234 | 47 | 265 | 0.0 | 0.0 | 0.00 | 0.00 | 0.00 | 94 | 1013.3 |
| 20260509040732 | 47 | 265 | 0.0 | 0.0 | 0.00 | 0.00 | 0.00 | 94 | 1013.5 |
| 20260509040229 | 47 | 265 | 0.0 | 0.0 | 0.00 | 0.00 | 0.00 | 93 | 1013.5 |
| 20260509035726 | 47 | 265 | 0.0 | 0.0 | 0.00 | 0.00 | 0.00 | 93 | 1013.5 |
| 20260509035223 | 47 | 265 | 0.0 | 0.0 | 0.00 | 0.00 | 0.00 | 93 | 1013.6 |
| 20260509034720 | 47 | 265 | 0.0 | 0.0 | 0.00 | 0.00 | 0.00 | 93 | 1013.6 |
| 20260509034217 | 47 | 265 | 0.0 | 0.0 | 0.00 | 0.00 | 0.00 | 93 | 1013.7 |
| 20260509033714 | 47 | 265 | 0.0 | 0.0 | 0.00 | 0.00 | 0.00 | 93 | 1013.7 |
| 20260509033211 | 47 | 265 | 0.0 | 0.0 | 0.00 | 0.00 | 0.00 | 93 | 1013.4 |
| 20260509032708 | 47 | 265 | 0.0 | 0.0 | 0.00 | 0.00 | 0.00 | 93 | 1013.5 |
| 20260509032205 | 47 | 265 | 0.0 | 0.0 | 0.00 | 0.00 | 0.00 | 94 | 1013.3 |
| 20260509031703 | 47 | 265 | 0.0 | 0.0 | 0.00 | 0.00 | 0.00 | 93 | 1013.3 |
| 20260509031200 | 47 | 265 | 0.0 | 0.0 | 0.00 | 0.00 | 0.00 | 93 | 1013.3 |
| 20260509030658 | 47 | 265 | 0.0 | 0.0 | 0.00 | 0.00 | 0.00 | 93 | 1013.3 |
| 20260509030154 | 46 | 265 | 0.0 | 0.0 | 0.00 | 0.00 | 0.00 | 94 | 1013.2 |
| 20260509025650 | 46 | 265 | 0.0 | 0.0 | 0.00 | 0.00 | 0.00 | 94 | 1013.4 |
| 20260509025147 | 46 | 265 | 0.0 | 0.0 | 0.00 | 0.00 | 0.00 | 94 | 1013.2 |
| 20260509024642 | 46 | 265 | 0.0 | 0.0 | 0.00 | 0.00 | 0.00 | 94 | 1013.3 |
| 20260509024138 | 46 | 265 | 0.0 | 0.0 | 0.00 | 0.00 | 0.00 | 94 | 1013.3 |
| 20260509023636 | 45 | 265 | 0.0 | 0.0 | 0.00 | 0.00 | 0.00 | 95 | 1013.5 |
| 20260509023133 | 45 | 265 | 0.0 | 0.0 | 0.00 | 0.00 | 0.00 | 95 | 1013.3 |
| 20260509022629 | 45 | 265 | 0.0 | 0.0 | 0.00 | 0.00 | 0.00 | 95 | 1013.4 |
| 20260509022127 | 45 | 265 | 0.0 | 0.0 | 0.00 | 0.00 | 0.00 | 95 | 1013.3 |
| 20260509021624 | 45 | 266 | 0.0 | 0.0 | 0.00 | 0.00 | 0.00 | 95 | 1013.3 |
| 20260509021121 | 45 | 265 | 0.0 | 0.0 | 0.00 | 0.00 | 0.00 | 95 | 1013.4 |
| 20260509020619 | 44 | 266 | 0.0 | 0.0 | 0.00 | 0.00 | 0.00 | 94 | 1013.4 |
| 20260509020115 | 45 | 266 | 0.0 | 0.0 | 0.00 | 0.00 | 0.00 | 93 | 1013.2 |
| 20260509015615 | 45 | 266 | 0.0 | 0.0 | 0.00 | 0.00 | 0.00 | 92 | 1013.1 |
| 20260509015111 | 46 | 266 | 0.0 | 0.0 | 0.00 | 0.00 | 0.00 | 92 | 1013.1 |
| 20260509014608 | 47 | 265 | 0.0 | 0.0 | 0.00 | 0.00 | 0.00 | 92 | 1013.1 |
| 20260509014104 | 47 | 265 | 0.0 | 0.0 | 0.00 | 0.00 | 0.00 | 92 | 1013.0 |
| 20260509013601 | 48 | 265 | 0.0 | 0.0 | 0.00 | 0.00 | 0.00 | 92 | 1013.0 |
| 20260509013057 | 48 | 265 | 0.0 | 0.0 | 0.00 | 0.00 | 0.00 | 92 | 1013.2 |
| 20260509012554 | 48 | 265 | 0.0 | 0.0 | 0.00 | 0.00 | 0.00 | 92 | 1012.9 |
| 20260509012050 | 48 | 265 | 0.0 | 0.0 | 0.00 | 0.00 | 0.00 | 91 | 1013.2 |
| 20260509011548 | 48 | 265 | 0.0 | 0.0 | 0.00 | 0.00 | 0.00 | 91 | 1013.2 |
| 20260509011045 | 48 | 265 | 0.0 | 0.0 | 0.00 | 0.00 | 0.00 | 91 | 1013.2 |
| 20260509010543 | 48 | 265 | 0.0 | 0.0 | 0.00 | 0.00 | 0.00 | 91 | 1013.1 |
| 20260509010040 | 48 | 265 | 0.0 | 0.0 | 0.00 | 0.00 | 0.00 | 91 | 1013.1 |
| 20260509005538 | 48 | 265 | 0.0 | 0.0 | 0.00 | 0.00 | 0.00 | 91 | 1012.8 |
| 20260509005038 | 48 | 265 | 0.0 | 0.0 | 0.00 | 0.00 | 0.00 | 91 | 1012.9 |
| 20260509004536 | 48 | 265 | 0.0 | 0.0 | 0.00 | 0.00 | 0.00 | 90 | 1012.8 |
| 20260509004032 | 48 | 265 | 0.0 | 0.0 | 0.00 | 0.00 | 0.00 | 90 | 1013.0 |
| 20260509003531 | 48 | 265 | 0.0 | 0.0 | 0.00 | 0.00 | 0.00 | 89 | 1012.9 |
| 20260509003028 | 48 | 265 | 0.0 | 0.0 | 0.00 | 0.00 | 0.00 | 88 | 1013.0 |
| 20260509002525 | 48 | 265 | 0.0 | 0.0 | 0.00 | 0.00 | 0.00 | 88 | 1012.8 |
| 20260509002022 | 49 | 265 | 0.0 | 0.0 | 0.00 | 0.00 | 0.00 | 87 | 1012.9 |
| 20260509001520 | 50 | 265 | 0.0 | 0.0 | 0.00 | 0.00 | 0.00 | 86 | 1012.8 |
| 20260509001015 | 50 | 265 | 0.0 | 0.0 | 0.00 | 0.00 | 0.00 | 86 | 1012.9 |
| 20260509000514 | 51 | 265 | 0.0 | 0.0 | 0.00 | 0.00 | 0.00 | 82 | 1012.5 |
| 20260509000009 | 51 | 265 | 0.0 | 0.0 | 0.00 | 0.00 | 0.00 | 83 | 1012.8 |
| 20260508235508 | 52 | 265 | 0.0 | 0.0 | 0.00 | 0.00 | 0.00 | 82 | 1012.9 |
| 20260508235003 | 52 | 265 | 0.0 | 0.0 | 0.00 | 0.00 | 0.00 | 82 | 1012.9 |
| 20260508234501 | 51 | 265 | 0.0 | 0.0 | 0.00 | 0.00 | 0.00 | 81 | 1013.0 |
| 20260508233958 | 52 | 265 | 0.0 | 0.0 | 0.00 | 0.00 | 0.00 | 83 | 1012.9 |
| 20260508233457 | 52 | 265 | 0.0 | 0.0 | 0.00 | 0.00 | 0.00 | 81 | 1013.0 |
| 20260508232953 | 53 | 265 | 0.0 | 0.0 | 0.00 | 0.00 | 0.00 | 81 | 1012.9 |
| 20260508232450 | 53 | 265 | 0.0 | 0.0 | 0.00 | 0.00 | 0.00 | 77 | 1012.9 |
| 20260508231948 | 54 | 265 | 0.0 | 0.0 | 0.00 | 0.00 | 0.00 | 74 | 1012.6 |
| 20260508231445 | 54 | 237 | 0.0 | 0.0 | 0.00 | 0.00 | 0.00 | 72 | 1012.8 |
| 20260508230941 | 54 | 237 | 0.0 | 0.0 | 0.00 | 0.00 | 0.00 | 72 | 1012.8 |
| 20260508230438 | 55 | 237 | 0.0 | 0.0 | 0.00 | 0.00 | 0.00 | 69 | 1012.8 |
| 20260508225935 | 55 | 237 | 0.0 | 0.0 | 0.00 | 0.00 | 0.00 | 71 | 1012.8 |
| 20260508225432 | 55 | 237 | 0.0 | 0.0 | 0.00 | 0.00 | 0.00 | 63 | 1012.9 |
| 20260508224929 | 55 | 237 | 0.0 | 0.0 | 0.00 | 0.00 | 0.00 | 64 | 1012.9 |
| 20260508224427 | 55 | 237 | 0.0 | 0.0 | 0.00 | 0.00 | 0.00 | 63 | 1012.7 |
| 20260508223924 | 55 | 237 | 0.0 | 0.0 | 0.00 | 0.00 | 0.00 | 63 | 1012.8 |
| 20260508223423 | 55 | 237 | 0.0 | 2.6 | 0.00 | 0.00 | 0.00 | 62 | 1012.9 |
| 20260508222919 | 55 | 237 | 0.0 | 1.7 | 0.00 | 0.00 | 0.00 | 62 | 1012.8 |
| 20260508222416 | 56 | 251 | 0.0 | 0.9 | 0.00 | 0.00 | 0.00 | 64 | 1012.5 |
| 20260508221913 | 58 | 190 | 1.7 | 2.6 | 0.00 | 0.00 | 0.00 | 59 | 1012.5 |
| 20260508221408 | 58 | 239 | 0.9 | 2.6 | 0.00 | 0.00 | 0.00 | 59 | 1012.7 |
| 20260508220905 | 57 | 240 | 0.9 | 0.9 | 0.00 | 0.00 | 0.00 | 63 | 1012.9 |
| 20260508220401 | 56 | 229 | 0.0 | 0.0 | 0.00 | 0.00 | 0.00 | 61 | 1012.6 |
| 20260508215858 | 55 | 230 | 0.0 | 0.0 | 0.00 | 0.00 | 0.00 | 66 | 1013.0 |
| 20260508215355 | 55 | 200 | 0.0 | 0.0 | 0.00 | 0.00 | 0.00 | 66 | 1013.0 |
| 20260508214851 | 54 | 200 | 0.0 | 2.6 | 0.00 | 0.00 | 0.00 | 65 | 1013.1 |
| 20260508214349 | 54 | 225 | 0.9 | 1.7 | 0.00 | 0.00 | 0.00 | 65 | 1013.3 |
| 20260508213845 | 54 | 237 | 0.9 | 1.7 | 0.00 | 0.00 | 0.00 | 66 | 1013.4 |
| 20260508213342 | 54 | 200 | 0.0 | 0.0 | 0.00 | 0.00 | 0.00 | 69 | 1013.3 |
| 20260508212838 | 54 | 217 | 0.9 | 0.9 | 0.00 | 0.00 | 0.00 | 69 | 1013.3 |
| 20260508212335 | 54 | 217 | 0.0 | 1.7 | 0.00 | 0.00 | 0.00 | 72 | 1013.1 |
| 20260508211825 | 53 | 246 | 0.0 | 1.7 | 0.00 | 0.00 | 0.00 | 72 | 1013.4 |
| 20260508211320 | 53 | 226 | 0.0 | 0.9 | 0.00 | 0.00 | 0.00 | 69 | 1013.5 |
| 20260508210819 | 53 | 207 | 0.0 | 1.7 | 0.00 | 0.00 | 0.00 | 70 | 1013.3 |
| 20260508210315 | 53 | 207 | 0.9 | 0.9 | 0.00 | 0.00 | 0.00 | 70 | 1013.5 |
| 20260508205812 | 54 | 225 | 0.9 | 1.7 | 0.00 | 0.00 | 0.00 | 68 | 1013.5 |
| 20260508205308 | 53 | 245 | 0.0 | 0.9 | 0.00 | 0.00 | 0.00 | 68 | 1013.7 |
| 20260508204805 | 54 | 236 | 1.7 | 5.2 | 0.00 | 0.00 | 0.00 | 66 | 1013.7 |
| 20260508204301 | 55 | 206 | 2.6 | 3.5 | 0.00 | 0.00 | 0.00 | 67 | 1013.7 |
| 20260508203758 | 55 | 206 | 0.9 | 2.6 | 0.00 | 0.00 | 0.00 | 67 | 1013.8 |
| 20260508203254 | 55 | 225 | 1.7 | 3.5 | 0.00 | 0.00 | 0.00 | 64 | 1013.5 |
| 20260508202749 | 55 | 240 | 1.7 | 2.6 | 0.00 | 0.00 | 0.00 | 64 | 1013.7 |
| 20260508202247 | 55 | 230 | 2.6 | 7.0 | 0.00 | 0.00 | 0.00 | 63 | 1013.6 |
| 20260508201744 | 55 | 219 | 2.6 | 2.6 | 0.00 | 0.00 | 0.00 | 62 | 1013.6 |
| 20260508201241 | 55 | 242 | 0.9 | 6.1 | 0.00 | 0.00 | 0.00 | 62 | 1013.5 |
| 20260508200737 | 56 | 247 | 2.6 | 5.2 | 0.00 | 0.00 | 0.00 | 61 | 1013.5 |
| 20260508200234 | 55 | 235 | 2.6 | 5.2 | 0.00 | 0.00 | 0.00 | 62 | 1013.3 |
| 20260508195730 | 56 | 181 | 2.6 | 8.7 | 0.00 | 0.00 | 0.00 | 61 | 1013.8 |
| 20260508195226 | 56 | 200 | 1.7 | 5.2 | 0.00 | 0.00 | 0.00 | 59 | 1013.6 |
| 20260508194723 | 57 | 218 | 2.6 | 8.7 | 0.00 | 0.00 | 0.00 | 58 | 1014.0 |
| 20260508194220 | 57 | 209 | 1.7 | 5.2 | 0.00 | 0.00 | 0.00 | 58 | 1013.7 |
| 20260508193717 | 56 | 190 | 5.2 | 8.7 | 0.00 | 0.00 | 0.00 | 57 | 1013.6 |
| 20260508193214 | 57 | 223 | 3.5 | 9.6 | 0.00 | 0.00 | 0.00 | 57 | 1013.7 |
| 20260508192710 | 58 | 220 | 1.7 | 6.1 | 0.00 | 0.00 | 0.00 | 56 | 1013.7 |
| 20260508192208 | 56 | 195 | 2.6 | 2.6 | 0.00 | 0.00 | 0.00 | 56 | 1014.0 |
| 20260508191705 | 55 | 266 | 1.7 | 2.6 | 0.00 | 0.00 | 0.00 | 61 | 1013.9 |
| 20260508191156 | 56 | 281 | 1.7 | 3.5 | 0.00 | 0.00 | 0.00 | 60 | 1013.9 |
| 20260508190654 | 56 | 284 | 4.3 | 13.0 | 0.00 | 0.00 | 0.00 | 59 | 1013.8 |
| 20260508190149 | 57 | 194 | 3.5 | 6.1 | 0.00 | 0.00 | 0.00 | 57 | 1014.0 |